Year,Month,Day,Hour,Minute,Value (Times are PST for temperature in C)
2009,09,29,00,00,9.30
2009,09,29,00,01,9.30
2009,09,29,00,03,9.20
2009,09,29,00,04,9.20
2009,09,29,00,05,9.20
2009,09,29,00,07,9.20
2009,09,29,00,08,9.20
2009,09,29,00,09,9.20
2009,09,29,00,11,9.20
2009,09,29,00,12,9.20
2009,09,29,00,13,9.20
2009,09,29,00,15,9.20
2009,09,29,00,16,9.20
2009,09,29,00,17,9.20
2009,09,29,00,19,9.20
2009,09,29,00,20,9.20
2009,09,29,00,21,9.20
2009,09,29,00,22,9.20
2009,09,29,00,23,9.20
2009,09,29,00,24,9.20
2009,09,29,00,25,9.20
2009,09,29,00,26,9.20
2009,09,29,00,27,9.20
2009,09,29,00,28,9.20
2009,09,29,00,29,9.20
2009,09,29,00,30,9.20
2009,09,29,00,31,9.20
2009,09,29,00,32,9.20
2009,09,29,00,33,9.20
2009,09,29,00,35,9.20
2009,09,29,00,36,9.20
2009,09,29,00,37,9.20
2009,09,29,00,38,9.20
2009,09,29,00,39,9.20
2009,09,29,00,40,9.20
2009,09,29,00,41,9.20
2009,09,29,00,42,9.20
2009,09,29,00,43,9.20
2009,09,29,00,44,9.20
2009,09,29,00,45,9.20
2009,09,29,00,46,9.20
2009,09,29,00,47,9.20
2009,09,29,00,48,9.10
2009,09,29,00,49,9.10
2009,09,29,00,51,9.10
2009,09,29,00,52,9.10
2009,09,29,00,53,9.20
2009,09,29,00,54,9.10
2009,09,29,00,55,9.10
2009,09,29,00,56,9.10
2009,09,29,00,58,9.10
2009,09,29,00,59,9.10
2009,09,29,01,00,9.10
2009,09,29,01,01,9.10
2009,09,29,01,02,9.00
2009,09,29,01,03,9.00
2009,09,29,01,05,9.00
2009,09,29,01,06,9.00
2009,09,29,01,08,9.00
2009,09,29,01,09,9.00
2009,09,29,01,10,9.00
2009,09,29,01,12,8.90
2009,09,29,01,13,8.90
2009,09,29,01,14,8.90
2009,09,29,01,15,8.90
2009,09,29,01,16,8.90
2009,09,29,01,17,8.90
2009,09,29,01,18,8.90
2009,09,29,01,19,8.90
2009,09,29,01,20,9.00
2009,09,29,01,21,9.00
2009,09,29,01,22,9.00
2009,09,29,01,23,9.00
2009,09,29,01,24,9.00
2009,09,29,01,25,9.10
2009,09,29,01,26,9.10
2009,09,29,01,27,9.10
2009,09,29,01,28,9.10
2009,09,29,01,29,9.10
2009,09,29,01,30,9.10
2009,09,29,01,31,9.10
2009,09,29,01,32,9.20
2009,09,29,01,33,9.20
2009,09,29,01,35,9.20
2009,09,29,01,37,9.20
2009,09,29,01,39,9.20
2009,09,29,01,41,9.20
2009,09,29,01,43,9.20
2009,09,29,01,44,9.20
2009,09,29,01,45,9.20
2009,09,29,01,46,9.20
2009,09,29,01,47,9.20
2009,09,29,01,49,9.20
2009,09,29,01,50,9.20
2009,09,29,01,51,9.20
2009,09,29,01,52,9.20
2009,09,29,01,53,9.10
2009,09,29,01,55,9.10
2009,09,29,01,56,9.10
2009,09,29,01,58,9.10
2009,09,29,01,59,9.10
2009,09,29,02,00,9.10
2009,09,29,02,01,9.10
2009,09,29,02,02,9.10
2009,09,29,02,04,9.10
2009,09,29,02,05,9.10
2009,09,29,02,07,9.20
2009,09,29,02,08,9.20
2009,09,29,02,09,9.20
2009,09,29,02,11,9.20
2009,09,29,02,12,9.20
2009,09,29,02,14,9.20
2009,09,29,02,15,9.20
2009,09,29,02,16,9.20
2009,09,29,02,17,9.20
2009,09,29,02,20,9.20
2009,09,29,02,21,9.30
2009,09,29,02,23,9.30
2009,09,29,02,24,9.30
2009,09,29,02,25,9.30
2009,09,29,02,26,9.30
2009,09,29,02,27,9.30
2009,09,29,02,29,9.40
2009,09,29,02,30,9.40
2009,09,29,02,31,9.40
2009,09,29,02,32,9.40
2009,09,29,02,34,9.40
2009,09,29,02,35,9.40
2009,09,29,02,36,9.50
2009,09,29,02,37,9.50
2009,09,29,02,38,9.50
2009,09,29,02,39,9.50
2009,09,29,02,40,9.50
2009,09,29,02,42,9.50
2009,09,29,02,43,9.50
2009,09,29,02,44,9.50
2009,09,29,02,45,9.60
2009,09,29,02,46,9.60
2009,09,29,02,47,9.60
2009,09,29,02,48,9.60
2009,09,29,02,49,9.60
2009,09,29,02,50,9.70
2009,09,29,02,51,9.70
2009,09,29,02,52,9.70
2009,09,29,02,53,9.70
2009,09,29,02,54,9.70
2009,09,29,02,55,9.70
2009,09,29,02,56,9.70
2009,09,29,02,58,9.70
2009,09,29,02,59,9.70
2009,09,29,03,00,9.70
2009,09,29,03,01,9.70
2009,09,29,03,02,9.70
2009,09,29,03,03,9.80
2009,09,29,03,04,9.80
2009,09,29,03,05,9.80
2009,09,29,03,07,9.80
2009,09,29,03,08,9.80
2009,09,29,03,11,9.70
2009,09,29,03,12,9.70
2009,09,29,03,13,9.70
2009,09,29,03,14,9.70
2009,09,29,03,15,9.70
2009,09,29,03,16,9.70
2009,09,29,03,17,9.70
2009,09,29,03,19,9.70
2009,09,29,03,20,9.70
2009,09,29,03,21,9.70
2009,09,29,03,22,9.70
2009,09,29,03,23,9.70
2009,09,29,03,24,9.70
2009,09,29,03,25,9.70
2009,09,29,03,26,9.70
2009,09,29,03,27,9.70
2009,09,29,03,28,9.70
2009,09,29,03,29,9.70
2009,09,29,03,30,9.70
2009,09,29,03,31,9.70
2009,09,29,03,32,9.70
2009,09,29,03,33,9.70
2009,09,29,03,34,9.70
2009,09,29,03,35,9.70
2009,09,29,03,36,9.70
2009,09,29,03,37,9.70
2009,09,29,03,38,9.70
2009,09,29,03,39,9.70
2009,09,29,03,40,9.70
2009,09,29,03,41,9.70
2009,09,29,03,42,9.70
2009,09,29,03,43,9.70
2009,09,29,03,44,9.70
2009,09,29,03,45,9.70
2009,09,29,03,46,9.70
2009,09,29,03,47,9.70
2009,09,29,03,48,9.70
2009,09,29,03,49,9.70
2009,09,29,03,50,9.70
2009,09,29,03,51,9.70
2009,09,29,03,52,9.70
2009,09,29,03,53,9.70
2009,09,29,03,54,9.70
2009,09,29,03,55,9.70
2009,09,29,03,56,9.70
2009,09,29,03,57,9.80
2009,09,29,03,58,9.80
2009,09,29,03,59,9.80
2009,09,29,04,00,9.80
2009,09,29,04,01,9.80
2009,09,29,04,02,9.80
2009,09,29,04,03,9.80
2009,09,29,04,04,9.90
2009,09,29,04,05,9.90
2009,09,29,04,06,9.90
2009,09,29,04,07,9.90
2009,09,29,04,08,9.90
2009,09,29,04,09,9.90
2009,09,29,04,10,9.90
2009,09,29,04,11,9.90
2009,09,29,04,12,9.90
2009,09,29,04,13,9.80
2009,09,29,04,14,9.80
2009,09,29,04,15,9.80
2009,09,29,04,16,9.80
2009,09,29,04,17,9.80
2009,09,29,04,18,9.80
2009,09,29,04,19,9.70
2009,09,29,04,20,9.70
2009,09,29,04,21,9.70
2009,09,29,04,22,9.70
2009,09,29,04,23,9.70
2009,09,29,04,24,9.70
2009,09,29,04,25,9.70
2009,09,29,04,26,9.70
2009,09,29,04,27,9.70
2009,09,29,04,28,9.70
2009,09,29,04,29,9.70
2009,09,29,04,30,9.70
2009,09,29,04,31,9.70
2009,09,29,04,32,9.70
2009,09,29,04,33,9.70
2009,09,29,04,34,9.80
2009,09,29,04,35,9.80
2009,09,29,04,36,9.80
2009,09,29,04,37,9.80
2009,09,29,04,38,9.80
2009,09,29,04,40,9.80
2009,09,29,04,41,9.80
2009,09,29,04,42,9.80
2009,09,29,04,43,9.80
2009,09,29,04,44,9.80
2009,09,29,04,45,9.80
2009,09,29,04,46,9.80
2009,09,29,04,47,9.80
2009,09,29,04,48,9.80
2009,09,29,04,49,9.80
2009,09,29,04,50,9.70
2009,09,29,04,51,9.70
2009,09,29,04,52,9.70
2009,09,29,04,53,9.70
2009,09,29,04,54,9.80
2009,09,29,04,55,9.80
2009,09,29,04,56,9.80
2009,09,29,04,57,9.80
2009,09,29,04,58,9.80
2009,09,29,04,59,9.80
2009,09,29,05,00,9.80
2009,09,29,05,01,9.80
2009,09,29,05,02,9.80
2009,09,29,05,03,9.70
2009,09,29,05,04,9.70
2009,09,29,05,05,9.70
2009,09,29,05,06,9.70
2009,09,29,05,07,9.70
2009,09,29,05,08,9.70
2009,09,29,05,09,9.70
2009,09,29,05,10,9.70
2009,09,29,05,11,9.70
2009,09,29,05,12,9.70
2009,09,29,05,13,9.70
2009,09,29,05,14,9.70
2009,09,29,05,15,9.70
2009,09,29,05,16,9.70
2009,09,29,05,17,9.70
2009,09,29,05,18,9.70
2009,09,29,05,19,9.70
2009,09,29,05,20,9.70
2009,09,29,05,21,9.70
2009,09,29,05,22,9.70
2009,09,29,05,23,9.70
2009,09,29,05,24,9.70
2009,09,29,05,25,9.70
2009,09,29,05,26,9.70
2009,09,29,05,27,9.70
2009,09,29,05,28,9.70
2009,09,29,05,30,9.70
2009,09,29,05,31,9.70
2009,09,29,05,32,9.70
2009,09,29,05,33,9.60
2009,09,29,05,34,9.60
2009,09,29,05,35,9.60
2009,09,29,05,36,9.60
2009,09,29,05,37,9.60
2009,09,29,05,38,9.60
2009,09,29,05,39,9.60
2009,09,29,05,40,9.60
2009,09,29,05,42,9.60
2009,09,29,05,43,9.60
2009,09,29,05,44,9.50
2009,09,29,05,45,9.50
2009,09,29,05,46,9.50
2009,09,29,05,48,9.50
2009,09,29,05,49,9.50
2009,09,29,05,50,9.40
2009,09,29,05,51,9.40
2009,09,29,05,52,9.40
2009,09,29,05,54,9.40
2009,09,29,05,55,9.40
2009,09,29,05,56,9.40
2009,09,29,05,57,9.40
2009,09,29,05,59,9.40
2009,09,29,06,00,9.40
2009,09,29,06,01,9.40
2009,09,29,06,02,9.40
2009,09,29,06,03,9.40
2009,09,29,06,04,9.40
2009,09,29,06,05,9.50
2009,09,29,06,07,9.50
2009,09,29,06,09,9.50
2009,09,29,06,10,9.50
2009,09,29,06,12,9.50
2009,09,29,06,13,9.60
2009,09,29,06,14,9.60
2009,09,29,06,15,9.60
2009,09,29,06,16,9.60
2009,09,29,06,17,9.60
2009,09,29,06,18,9.60
2009,09,29,06,19,9.60
2009,09,29,06,21,9.60
2009,09,29,06,22,9.60
2009,09,29,06,24,9.60
2009,09,29,06,25,9.60
2009,09,29,06,26,9.60
2009,09,29,06,27,9.60
2009,09,29,06,29,9.60
2009,09,29,06,30,9.60
2009,09,29,06,31,9.60
2009,09,29,06,32,9.50
2009,09,29,06,33,9.50
2009,09,29,06,34,9.50
2009,09,29,06,35,9.50
2009,09,29,06,37,9.50
2009,09,29,06,38,9.50
2009,09,29,06,39,9.50
2009,09,29,06,40,9.50
2009,09,29,06,42,9.50
2009,09,29,06,44,9.50
2009,09,29,06,45,9.60
2009,09,29,06,47,9.60
2009,09,29,06,48,9.60
2009,09,29,06,49,9.60
2009,09,29,06,50,9.60
2009,09,29,06,52,9.60
2009,09,29,06,53,9.60
2009,09,29,06,54,9.50
2009,09,29,06,55,9.50
2009,09,29,06,57,9.50
2009,09,29,06,58,9.50
2009,09,29,06,59,9.50
2009,09,29,07,00,9.50
2009,09,29,07,01,9.40
2009,09,29,07,02,9.40
2009,09,29,07,04,9.40
2009,09,29,07,05,9.40
2009,09,29,07,06,9.40
2009,09,29,07,07,9.30
2009,09,29,07,08,9.30
2009,09,29,07,10,9.30
2009,09,29,07,11,9.30
2009,09,29,07,12,9.30
2009,09,29,07,14,9.30
2009,09,29,07,15,9.30
2009,09,29,07,16,9.30
2009,09,29,07,17,9.30
2009,09,29,07,18,9.30
2009,09,29,07,19,9.30
2009,09,29,07,20,9.30
2009,09,29,07,21,9.30
2009,09,29,07,22,9.30
2009,09,29,07,23,9.30
2009,09,29,07,24,9.30
2009,09,29,07,25,9.30
2009,09,29,07,26,9.30
2009,09,29,07,27,9.30
2009,09,29,07,28,9.30
2009,09,29,07,29,9.30
2009,09,29,07,30,9.30
2009,09,29,07,31,9.30
2009,09,29,07,33,9.30
2009,09,29,07,34,9.30
2009,09,29,07,35,9.30
2009,09,29,07,36,9.30
2009,09,29,07,37,9.30
2009,09,29,07,38,9.30
2009,09,29,07,39,9.30
2009,09,29,07,40,9.30
2009,09,29,07,41,9.30
2009,09,29,07,42,9.30
2009,09,29,07,43,9.30
2009,09,29,07,44,9.30
2009,09,29,07,45,9.30
2009,09,29,07,46,9.30
2009,09,29,07,47,9.30
2009,09,29,07,48,9.40
2009,09,29,07,49,9.40
2009,09,29,07,50,9.40
2009,09,29,07,51,9.40
2009,09,29,07,52,9.40
2009,09,29,07,53,9.40
2009,09,29,07,54,9.50
2009,09,29,07,55,9.50
2009,09,29,07,56,9.50
2009,09,29,07,57,9.50
2009,09,29,07,58,9.50
2009,09,29,07,59,9.60
2009,09,29,08,00,9.60
2009,09,29,08,01,9.60
2009,09,29,08,03,9.60
2009,09,29,08,04,9.60
2009,09,29,08,05,9.70
2009,09,29,08,07,9.70
2009,09,29,08,08,9.70
2009,09,29,08,09,9.70
2009,09,29,08,10,9.70
2009,09,29,08,11,9.80
2009,09,29,08,12,9.80
2009,09,29,08,13,9.80
2009,09,29,08,14,9.80
2009,09,29,08,15,9.80
2009,09,29,08,16,9.80
2009,09,29,08,17,9.90
2009,09,29,08,18,9.90
2009,09,29,08,20,9.90
2009,09,29,08,21,9.90
2009,09,29,08,23,9.90
2009,09,29,08,24,9.90
2009,09,29,08,26,9.90
2009,09,29,08,27,9.90
2009,09,29,08,28,9.90
2009,09,29,08,29,9.90
2009,09,29,08,30,9.90
2009,09,29,08,31,9.90
2009,09,29,08,32,9.90
2009,09,29,08,33,9.90
2009,09,29,08,34,10.10
2009,09,29,08,35,10.10
2009,09,29,08,36,10.10
2009,09,29,08,37,10.10
2009,09,29,08,38,10.10
2009,09,29,08,39,10.10
2009,09,29,08,40,10.10
2009,09,29,08,41,10.10
2009,09,29,08,42,10.10
2009,09,29,08,43,10.10
2009,09,29,08,44,10.10
2009,09,29,08,45,10.10
2009,09,29,08,46,10.10
2009,09,29,08,47,10.10
2009,09,29,08,48,10.10
2009,09,29,08,50,10.20
2009,09,29,08,51,10.20
2009,09,29,08,52,10.20
2009,09,29,08,53,10.20
2009,09,29,08,54,10.20
2009,09,29,08,55,10.10
2009,09,29,08,56,10.10
2009,09,29,08,57,10.10
2009,09,29,08,58,10.10
2009,09,29,08,59,10.10
2009,09,29,09,00,10.10
2009,09,29,09,01,10.10
2009,09,29,09,02,10.10
2009,09,29,09,03,10.10
2009,09,29,09,04,10.10
2009,09,29,09,05,10.20
2009,09,29,09,06,10.20
2009,09,29,09,07,10.20
2009,09,29,09,08,10.20
2009,09,29,09,09,10.20
2009,09,29,09,10,10.20
2009,09,29,09,11,10.20
2009,09,29,09,12,10.20
2009,09,29,09,13,10.20
2009,09,29,09,15,10.20
2009,09,29,09,16,10.20
2009,09,29,09,17,10.20
2009,09,29,09,18,10.30
2009,09,29,09,19,10.30
2009,09,29,09,20,10.30
2009,09,29,09,21,10.30
2009,09,29,09,22,10.30
2009,09,29,09,23,10.30
2009,09,29,09,24,10.30
2009,09,29,09,25,10.30
2009,09,29,09,26,10.40
2009,09,29,09,27,10.40
2009,09,29,09,28,10.60
2009,09,29,09,29,10.60
2009,09,29,09,30,10.60
2009,09,29,09,31,10.60
2009,09,29,09,33,10.60
2009,09,29,09,34,10.60
2009,09,29,09,35,10.60
2009,09,29,09,36,10.60
2009,09,29,09,37,10.60
2009,09,29,09,38,10.60
2009,09,29,09,39,10.60
2009,09,29,09,40,10.60
2009,09,29,09,41,10.60
2009,09,29,09,43,10.60
2009,09,29,09,45,10.70
2009,09,29,09,46,10.70
2009,09,29,09,47,10.80
2009,09,29,09,48,10.80
2009,09,29,09,49,10.80
2009,09,29,09,50,10.80
2009,09,29,09,51,10.90
2009,09,29,09,53,10.90
2009,09,29,09,54,10.90
2009,09,29,09,55,10.90
2009,09,29,09,56,10.90
2009,09,29,09,58,10.90
2009,09,29,10,00,10.90
2009,09,29,10,01,10.90
2009,09,29,10,02,10.90
2009,09,29,10,03,11.10
2009,09,29,10,05,11.10
2009,09,29,10,07,11.20
2009,09,29,10,08,11.30
2009,09,29,10,09,11.40
2009,09,29,10,11,11.60
2009,09,29,10,12,11.60
2009,09,29,10,14,11.40
2009,09,29,10,15,11.40
2009,09,29,10,16,11.60
2009,09,29,10,17,11.60
2009,09,29,10,18,11.60
2009,09,29,10,20,11.80
2009,09,29,10,22,11.80
2009,09,29,10,23,11.90
2009,09,29,10,25,12.00
2009,09,29,10,26,12.10
2009,09,29,10,28,12.30
2009,09,29,10,30,12.30
2009,09,29,10,31,12.30
2009,09,29,10,33,12.40
2009,09,29,10,35,12.40
2009,09,29,10,36,12.40
2009,09,29,10,38,12.30
2009,09,29,10,40,12.30
2009,09,29,10,41,12.40
2009,09,29,10,42,12.40
2009,09,29,10,44,12.50
2009,09,29,10,45,12.50
2009,09,29,10,46,12.50
2009,09,29,10,47,12.60
2009,09,29,10,49,12.70
2009,09,29,10,50,12.60
2009,09,29,10,52,12.60
2009,09,29,10,54,12.70
2009,09,29,10,55,12.80
2009,09,29,10,57,12.80
2009,09,29,10,58,12.80
2009,09,29,10,59,12.80
2009,09,29,11,00,12.80
2009,09,29,11,01,12.80
2009,09,29,11,02,12.80
2009,09,29,11,03,12.80
2009,09,29,11,05,12.80
2009,09,29,11,07,12.80
2009,09,29,11,08,13.00
2009,09,29,11,10,13.10
2009,09,29,11,11,13.30
2009,09,29,11,13,13.60
2009,09,29,11,15,13.70
2009,09,29,11,16,13.80
2009,09,29,11,18,14.00
2009,09,29,11,19,14.10
2009,09,29,11,21,14.10
2009,09,29,11,22,14.10
2009,09,29,11,24,13.90
2009,09,29,11,26,13.70
2009,09,29,11,27,13.70
2009,09,29,11,28,13.70
2009,09,29,11,30,13.70
2009,09,29,11,32,13.80
2009,09,29,11,34,13.90
2009,09,29,11,36,13.80
2009,09,29,11,38,13.60
2009,09,29,11,39,13.50
2009,09,29,11,41,13.20
2009,09,29,11,43,12.90
2009,09,29,11,45,12.80
2009,09,29,11,46,12.80
2009,09,29,11,47,12.80
2009,09,29,11,49,12.80
2009,09,29,11,51,12.70
2009,09,29,11,52,12.70
2009,09,29,11,53,12.70
2009,09,29,11,54,12.60
2009,09,29,11,55,12.70
2009,09,29,11,56,12.60
2009,09,29,11,57,12.60
2009,09,29,11,59,12.60
2009,09,29,12,00,12.60
2009,09,29,12,01,12.60
2009,09,29,12,02,12.70
2009,09,29,12,03,12.70
2009,09,29,12,04,12.80
2009,09,29,12,06,12.80
2009,09,29,12,07,12.80
2009,09,29,12,08,12.80
2009,09,29,12,09,12.80
2009,09,29,12,10,12.80
2009,09,29,12,12,12.80
2009,09,29,12,13,12.80
2009,09,29,12,14,12.70
2009,09,29,12,15,12.70
2009,09,29,12,16,12.70
2009,09,29,12,17,12.60
2009,09,29,12,19,12.70
2009,09,29,12,20,12.60
2009,09,29,12,21,12.50
2009,09,29,12,22,12.50
2009,09,29,12,24,12.40
2009,09,29,12,25,12.40
2009,09,29,12,26,12.30
2009,09,29,12,27,12.30
2009,09,29,12,28,12.20
2009,09,29,12,29,12.20
2009,09,29,12,30,12.10
2009,09,29,12,31,12.10
2009,09,29,12,32,12.10
2009,09,29,12,33,12.00
2009,09,29,12,35,11.90
2009,09,29,12,36,11.90
2009,09,29,12,37,11.80
2009,09,29,12,38,11.80
2009,09,29,12,39,11.90
2009,09,29,12,40,11.90
2009,09,29,12,41,11.90
2009,09,29,12,42,11.90
2009,09,29,12,43,11.90
2009,09,29,12,44,11.90
2009,09,29,12,45,11.90
2009,09,29,12,46,11.90
2009,09,29,12,47,11.90
2009,09,29,12,48,11.90
2009,09,29,12,49,12.00
2009,09,29,12,50,12.00
2009,09,29,12,51,12.00
2009,09,29,12,52,11.90
2009,09,29,12,53,11.80
2009,09,29,12,54,11.70
2009,09,29,12,56,11.60
2009,09,29,12,57,11.60
2009,09,29,12,58,11.50
2009,09,29,12,59,11.40
2009,09,29,13,00,11.30
2009,09,29,13,01,11.20
2009,09,29,13,02,11.10
2009,09,29,13,03,11.10
2009,09,29,13,04,11.10
2009,09,29,13,05,10.90
2009,09,29,13,06,10.90
2009,09,29,13,07,10.80
2009,09,29,13,08,10.70
2009,09,29,13,09,10.70
2009,09,29,13,10,10.60
2009,09,29,13,11,10.60
2009,09,29,13,12,10.60
2009,09,29,13,13,10.60
2009,09,29,13,14,10.70
2009,09,29,13,15,10.70
2009,09,29,13,16,10.80
2009,09,29,13,17,10.80
2009,09,29,13,18,10.80
2009,09,29,13,19,10.90
2009,09,29,13,20,10.90
2009,09,29,13,21,10.90
2009,09,29,13,22,10.90
2009,09,29,13,23,10.90
2009,09,29,13,24,10.90
2009,09,29,13,25,10.90
2009,09,29,13,26,10.80
2009,09,29,13,27,10.80
2009,09,29,13,28,10.70
2009,09,29,13,29,10.70
2009,09,29,13,30,10.70
2009,09,29,13,31,10.70
2009,09,29,13,32,10.70
2009,09,29,13,33,10.70
2009,09,29,13,34,10.80
2009,09,29,13,35,10.80
2009,09,29,13,36,10.90
2009,09,29,13,38,11.10
2009,09,29,13,39,11.10
2009,09,29,13,40,11.10
2009,09,29,13,41,11.20
2009,09,29,13,42,11.20
2009,09,29,13,43,11.30
2009,09,29,13,44,11.30
2009,09,29,13,45,11.30
2009,09,29,13,46,11.40
2009,09,29,13,47,11.40
2009,09,29,13,48,11.40
2009,09,29,13,49,11.40
2009,09,29,13,50,11.30
2009,09,29,13,51,11.30
2009,09,29,13,53,11.40
2009,09,29,13,54,11.40
2009,09,29,13,55,11.40
2009,09,29,13,56,11.40
2009,09,29,13,57,11.40
2009,09,29,13,58,11.40
2009,09,29,13,59,11.40
2009,09,29,14,00,11.40
2009,09,29,14,01,11.40
2009,09,29,14,02,11.40
2009,09,29,14,03,11.40
2009,09,29,14,04,11.40
2009,09,29,14,05,11.40
2009,09,29,14,06,11.40
2009,09,29,14,07,11.40
2009,09,29,14,08,11.40
2009,09,29,14,09,11.60
2009,09,29,14,10,11.60
2009,09,29,14,11,11.70
2009,09,29,14,12,11.80
2009,09,29,14,13,11.70
2009,09,29,14,14,11.70
2009,09,29,14,15,11.60
2009,09,29,14,16,11.60
2009,09,29,14,17,11.60
2009,09,29,14,19,11.40
2009,09,29,14,20,11.40
2009,09,29,14,21,11.40
2009,09,29,14,22,11.40
2009,09,29,14,23,11.40
2009,09,29,14,24,11.40
2009,09,29,14,25,11.30
2009,09,29,14,26,11.20
2009,09,29,14,27,11.10
2009,09,29,14,28,11.00
2009,09,29,14,29,10.70
2009,09,29,14,30,10.60
2009,09,29,14,31,10.60
2009,09,29,14,32,10.60
2009,09,29,14,33,10.60
2009,09,29,14,35,10.60
2009,09,29,14,36,10.60
2009,09,29,14,37,10.60
2009,09,29,14,38,10.60
2009,09,29,14,39,10.70
2009,09,29,14,40,10.70
2009,09,29,14,41,10.60
2009,09,29,14,42,10.70
2009,09,29,14,43,10.80
2009,09,29,14,44,10.90
2009,09,29,14,45,10.90
2009,09,29,14,46,10.90
2009,09,29,14,48,11.10
2009,09,29,14,49,11.10
2009,09,29,14,50,11.10
2009,09,29,14,51,11.10
2009,09,29,14,52,11.20
2009,09,29,14,54,11.20
2009,09,29,14,57,11.10
2009,09,29,14,58,11.10
2009,09,29,14,59,10.90
2009,09,29,15,00,10.90
2009,09,29,15,01,10.90
2009,09,29,15,02,10.90
2009,09,29,15,03,10.90
2009,09,29,15,04,10.90
2009,09,29,15,05,10.90
2009,09,29,15,06,10.90
2009,09,29,15,07,10.90
2009,09,29,15,08,10.90
2009,09,29,15,09,10.90
2009,09,29,15,10,10.90
2009,09,29,15,11,10.90
2009,09,29,15,12,10.90
2009,09,29,15,13,10.90
2009,09,29,15,15,10.90
2009,09,29,15,17,11.00
2009,09,29,15,19,10.90
2009,09,29,15,20,11.10
2009,09,29,15,21,11.10
2009,09,29,15,22,11.10
2009,09,29,15,23,11.10
2009,09,29,15,24,11.10
2009,09,29,15,26,11.10
2009,09,29,15,27,11.10
2009,09,29,15,29,11.10
2009,09,29,15,30,11.20
2009,09,29,15,32,11.20
2009,09,29,15,33,11.30
2009,09,29,15,36,11.30
2009,09,29,15,37,11.30
2009,09,29,15,39,11.30
2009,09,29,15,40,11.40
2009,09,29,15,42,11.60
2009,09,29,15,43,11.60
2009,09,29,15,45,11.60
2009,09,29,15,46,11.60
2009,09,29,15,47,11.60
2009,09,29,15,49,11.60
2009,09,29,15,50,11.70
2009,09,29,15,51,11.70
2009,09,29,15,52,11.80
2009,09,29,15,53,11.80
2009,09,29,15,56,11.70
2009,09,29,15,57,11.70
2009,09,29,15,59,11.60
2009,09,29,16,00,11.70
2009,09,29,16,01,11.70
2009,09,29,16,02,11.70
2009,09,29,16,03,11.70
2009,09,29,16,04,11.70
2009,09,29,16,05,11.70
2009,09,29,16,07,11.70
2009,09,29,16,08,11.70
2009,09,29,16,10,11.80
2009,09,29,16,11,11.70
2009,09,29,16,13,11.70
2009,09,29,16,14,11.70
2009,09,29,16,15,11.60
2009,09,29,16,16,11.60
2009,09,29,16,17,11.60
2009,09,29,16,18,11.60
2009,09,29,16,19,11.60
2009,09,29,16,21,11.60
2009,09,29,16,22,11.60
2009,09,29,16,23,11.60
2009,09,29,16,24,11.60
2009,09,29,16,26,11.60
2009,09,29,16,27,11.60
2009,09,29,16,29,11.60
2009,09,29,16,30,11.60
2009,09,29,16,32,11.60
2009,09,29,16,33,11.40
2009,09,29,16,34,11.40
2009,09,29,16,36,11.40
2009,09,29,16,38,11.20
2009,09,29,16,39,11.20
2009,09,29,16,40,11.20
2009,09,29,16,41,11.30
2009,09,29,16,42,11.40
2009,09,29,16,44,11.50
2009,09,29,16,45,11.60
2009,09,29,16,46,11.60
2009,09,29,16,47,11.60
2009,09,29,16,49,11.70
2009,09,29,16,51,11.80
2009,09,29,16,52,11.80
2009,09,29,16,54,11.90
2009,09,29,16,55,11.90
2009,09,29,16,56,12.00
2009,09,29,16,57,12.00
2009,09,29,16,58,12.00
2009,09,29,16,59,12.10
2009,09,29,17,00,12.10
2009,09,29,17,01,12.10
2009,09,29,17,02,12.20
2009,09,29,17,03,12.20
2009,09,29,17,04,12.20
2009,09,29,17,05,12.30
2009,09,29,17,06,12.30
2009,09,29,17,07,12.30
2009,09,29,17,08,12.30
2009,09,29,17,09,12.30
2009,09,29,17,10,12.50
2009,09,29,17,11,12.60
2009,09,29,17,12,12.60
2009,09,29,17,13,12.70
2009,09,29,17,14,12.70
2009,09,29,17,15,12.70
2009,09,29,17,17,12.50
2009,09,29,17,18,12.40
2009,09,29,17,19,12.40
2009,09,29,17,20,12.50
2009,09,29,17,21,12.50
2009,09,29,17,22,12.50
2009,09,29,17,23,12.50
2009,09,29,17,24,12.50
2009,09,29,17,25,12.50
2009,09,29,17,26,12.50
2009,09,29,17,27,12.40
2009,09,29,17,28,12.40
2009,09,29,17,29,12.30
2009,09,29,17,30,12.30
2009,09,29,17,31,12.30
2009,09,29,17,32,12.30
2009,09,29,17,33,12.40
2009,09,29,17,34,12.40
2009,09,29,17,35,12.30
2009,09,29,17,36,12.30
2009,09,29,17,37,12.30
2009,09,29,17,38,12.40
2009,09,29,17,39,12.30
2009,09,29,17,40,12.30
2009,09,29,17,41,12.30
2009,09,29,17,42,12.30
2009,09,29,17,43,12.30
2009,09,29,17,44,12.30
2009,09,29,17,45,12.30
2009,09,29,17,46,12.30
2009,09,29,17,47,12.30
2009,09,29,17,48,12.30
2009,09,29,17,49,12.30
2009,09,29,17,50,12.30
2009,09,29,17,51,12.30
2009,09,29,17,52,12.30
2009,09,29,17,53,12.30
2009,09,29,17,54,12.30
2009,09,29,17,55,12.30
2009,09,29,17,56,12.30
2009,09,29,17,57,12.40
2009,09,29,17,58,12.40
2009,09,29,17,59,12.50
2009,09,29,18,00,12.50
2009,09,29,18,01,12.60
2009,09,29,18,02,12.60
2009,09,29,18,03,12.60
2009,09,29,18,04,12.60
2009,09,29,18,05,12.70
2009,09,29,18,06,12.60
2009,09,29,18,07,12.60
2009,09,29,18,08,12.50
2009,09,29,18,09,12.40
2009,09,29,18,10,12.40
2009,09,29,18,11,12.30
2009,09,29,18,12,12.30
2009,09,29,18,13,12.30
2009,09,29,18,14,12.20
2009,09,29,18,15,12.10
2009,09,29,18,16,12.00
2009,09,29,18,17,11.90
2009,09,29,18,18,11.80
2009,09,29,18,19,11.80
2009,09,29,18,20,11.80
2009,09,29,18,21,11.80
2009,09,29,18,22,11.80
2009,09,29,18,23,11.80
2009,09,29,18,24,11.80
2009,09,29,18,25,11.80
2009,09,29,18,26,11.80
2009,09,29,18,27,11.70
2009,09,29,18,28,11.60
2009,09,29,18,29,11.70
2009,09,29,18,30,11.70
2009,09,29,18,31,11.60
2009,09,29,18,32,11.60
2009,09,29,18,33,11.60
2009,09,29,18,34,11.60
2009,09,29,18,35,11.40
2009,09,29,18,36,11.60
2009,09,29,18,37,11.60
2009,09,29,18,38,11.60
2009,09,29,18,39,11.70
2009,09,29,18,40,11.70
2009,09,29,18,41,11.80
2009,09,29,18,43,11.70
2009,09,29,18,44,11.70
2009,09,29,18,45,11.80
2009,09,29,18,46,11.80
2009,09,29,18,47,11.70
2009,09,29,18,48,11.60
2009,09,29,18,49,11.60
2009,09,29,18,50,11.60
2009,09,29,18,51,11.60
2009,09,29,18,52,11.60
2009,09,29,18,53,11.40
2009,09,29,18,54,11.40
2009,09,29,18,55,11.40
2009,09,29,18,56,11.40
2009,09,29,18,57,11.40
2009,09,29,18,59,11.50
2009,09,29,19,00,11.40
2009,09,29,19,01,11.40
2009,09,29,19,02,11.30
2009,09,29,19,03,11.20
2009,09,29,19,04,11.10
2009,09,29,19,05,11.10
2009,09,29,19,06,10.90
2009,09,29,19,07,10.90
2009,09,29,19,08,10.80
2009,09,29,19,09,10.80
2009,09,29,19,10,10.90
2009,09,29,19,11,10.90
2009,09,29,19,12,10.90
2009,09,29,19,13,10.90
2009,09,29,19,14,10.90
2009,09,29,19,15,10.90
2009,09,29,19,16,10.90
2009,09,29,19,18,10.90
2009,09,29,19,19,10.90
2009,09,29,19,21,10.80
2009,09,29,19,22,10.90
2009,09,29,19,23,10.80
2009,09,29,19,24,10.80
2009,09,29,19,25,10.80
2009,09,29,19,26,10.80
2009,09,29,19,27,10.80
2009,09,29,19,28,10.70
2009,09,29,19,29,10.80
2009,09,29,19,30,10.70
2009,09,29,19,31,10.70
2009,09,29,19,32,10.70
2009,09,29,19,33,10.70
2009,09,29,19,34,10.80
2009,09,29,19,35,10.80
2009,09,29,19,36,10.70
2009,09,29,19,37,10.80
2009,09,29,19,38,10.80
2009,09,29,19,39,10.90
2009,09,29,19,40,10.90
2009,09,29,19,41,10.90
2009,09,29,19,43,11.10
2009,09,29,19,45,11.10
2009,09,29,19,46,11.10
2009,09,29,19,47,11.10
2009,09,29,19,48,11.10
2009,09,29,19,49,11.10
2009,09,29,19,51,11.10
2009,09,29,19,52,11.20
2009,09,29,19,53,11.20
2009,09,29,19,54,11.20
2009,09,29,19,55,11.10
2009,09,29,19,56,11.10
2009,09,29,19,57,11.10
2009,09,29,19,59,10.90
2009,09,29,20,00,10.80
2009,09,29,20,01,10.70
2009,09,29,20,02,10.60
2009,09,29,20,04,10.60
2009,09,29,20,05,10.50
2009,09,29,20,06,10.40
2009,09,29,20,07,10.40
2009,09,29,20,09,10.40
2009,09,29,20,10,10.40
2009,09,29,20,12,10.40
2009,09,29,20,13,10.40
2009,09,29,20,14,10.30
2009,09,29,20,15,10.30
2009,09,29,20,16,10.30
2009,09,29,20,18,10.30
2009,09,29,20,19,10.30
2009,09,29,20,21,10.20
2009,09,29,20,22,10.10